Weather History for Hollywood, FL

Change the Weather History Date:

Wednesday, January 2, 2013

  Actual Average (KFLL) Record (KFLL)
Temperature  
Mean Temperature 72 °F 69 °F  
Max Temperature 81 °F 76 °F 86 °F (1924)
Min Temperature 62 °F 62 °F 32 °F (1949)
Degree Days  
Heating Degree Days 0 2  
Month to date heating degree days 4  
Since 1 July heating degree days 36  
Cooling Degree Days 6 6  
Month to date cooling degree days 12  
Year to date cooling degree days 12  
Growing Degree Days 22 (Base 50)    
Moisture  
Dew Point 63 °F    
Average Humidity 75    
Maximum Humidity 93    
Minimum Humidity 50    
Precipitation  
Precipitation 0.00 in 0.08 in 2.80 in (1958)
Month to date precipitation 0.18  
Year to date precipitation 0.18  
Snow  
Snow 0.00 in - - ()
Month to date snowfall  
Since 1 July snowfall  
Snow Depth -    
Sea Level Pressure  
Sea Level Pressure 30.07 in    
Wind  
Wind Speed 2 mph (South)    
Max Wind Speed 8 mph    
Max Gust Speed -    
Visibility 10 miles    
Events      
T = Trace of Precipitation, MM = Missing Value Source: NWS Daily Summary

Daily Weather History Graph

Daily Weather History Graph

Search for Another Location

Airport:

Trip Planner

Search our weather history database for the weather conditions in past years. The results will help you decide how hot, cold, wet, or windy it might be!

Date:

Astronomy

Jan. 02, 2013 Rise Set
Actual Time 7:08 AM EST 5:42 PM EST
Civil Twilight 6:43 AM EST 6:07 PM EST
Nautical Twilight 6:14 AM EST 6:35 PM EST
Astronomical Twilight 5:46 AM EST 7:03 PM EST
Moon 10:38 PM EST (1/2) 10:20 AM EST (1/2)
Length of Visible Light 11h 23m
Length of Day
10h 33m
Waning Gibbous, 75% of the Moon is Illuminated
Jan 2
Waning Gibbous
Jan 4
Last Quarter
Jan 11
New
Jan 18
First Quarter
Jan 26
Full

Hourly Weather History & Observations

Time (EST) Temp. Heat Index Dew Point Humidity Pressure Visibility Wind Dir Wind Speed Gust Speed Precip Events Conditions
12:53 AM 64.9 °F - 60.1 °F 84% 30.07 in 10.0 mi Calm Calm - N/A   Clear
1:53 AM 64.9 °F - 60.1 °F 84% 30.06 in 10.0 mi Calm Calm - N/A   Clear
2:53 AM 63.0 °F - 60.1 °F 90% 30.07 in 10.0 mi Calm Calm - N/A   Clear
4:53 AM 64.0 °F - 61.0 °F 90% 30.07 in 10.0 mi Calm Calm - N/A   Overcast
5:53 AM 63.0 °F - 61.0 °F 93% 30.08 in 10.0 mi Calm Calm - N/A   Clear
6:53 AM 62.1 °F - 60.1 °F 93% 30.09 in 10.0 mi Calm Calm - N/A   Clear
7:53 AM 64.0 °F - 62.1 °F 93% 30.10 in 10.0 mi Calm Calm - N/A   Clear
8:53 AM 72.0 °F - 64.9 °F 78% 30.11 in 10.0 mi Calm Calm - N/A   Clear
9:53 AM 77.0 °F - 64.9 °F 66% 30.12 in 10.0 mi SSE 5.8 mph - N/A   Clear
10:53 AM 77.0 °F - 64.0 °F 64% 30.12 in 10.0 mi SSE 3.5 mph - N/A   Overcast
11:53 AM 79.0 °F - 63.0 °F 58% 30.09 in 10.0 mi Variable 5.8 mph - N/A   Overcast
12:53 PM 79.0 °F - 60.1 °F 52% 30.06 in 10.0 mi Calm Calm - N/A   Overcast
1:53 PM 79.0 °F - 60.1 °F 52% 30.03 in 10.0 mi WSW 5.8 mph - N/A   Clear
2:53 PM 81.0 °F 81.7 °F 61.0 °F 50% 30.02 in 10.0 mi WNW 5.8 mph - N/A   Scattered Clouds
3:53 PM 81.0 °F 81.7 °F 61.0 °F 50% 30.02 in 10.0 mi SSW 5.8 mph - N/A   Partly Cloudy
4:53 PM 77.0 °F - 64.0 °F 64% 30.03 in 10.0 mi SSE 8.1 mph - N/A   Mostly Cloudy
6:53 PM 73.9 °F - 66.0 °F 76% 30.05 in 10.0 mi South 5.8 mph - N/A   Mostly Cloudy
7:53 PM 73.0 °F - 66.9 °F 81% 30.07 in 10.0 mi South 5.8 mph - N/A   Mostly Cloudy
8:53 PM 73.0 °F - 66.9 °F 81% 30.08 in 10.0 mi South 4.6 mph - N/A   Mostly Cloudy
9:53 PM 73.0 °F - 66.9 °F 81% 30.09 in 10.0 mi South 3.5 mph - N/A   Overcast
10:53 PM 72.0 °F - 66.9 °F 84% 30.09 in 10.0 mi Calm Calm - N/A   Overcast
11:53 PM 72.0 °F - 66.9 °F 84% 30.09 in 10.0 mi Calm Calm - N/A   Mostly Cloudy